Temp
70 70 71 70 69 66 66 70 73 78 80 80 79 80 80 79 79 78 77 77 77 79 78 79 79 78 79 80 78 78 78 78 75 74 71 70 72 70 71 71 73 74 73 72 71 69 66 61 64 72 75 74 75 76 78 78 78 76 75 77 79 79 79
71 70 69 69 67 66 66 67 73 79 79 79 80 80 79 78 77 76 75 76 76 78 79 81 80 80 78 73 74 71 76 77 76 71 72 72 73 69 72 72 73 72 68 73 72 70 68 64 64 67 66 72 73 74 75 77 77 77 78 79 79 79 77
68 69 69 67 66 68 66 68 75 76 78 77 78 79 79 80 79 79 79 79 78 80 80 81 80 79 79 77 76 76 73 74 73 70 70 69 71 70 75 73 70 71 71 69 69 70 70 68 66 67 68 68 67 70 73 74 76 77 78 77 78 81 79
67 67 64 64 65 66 66 72 74 75 76 77 77 77 78 79 79 79 78 77 79 79 79 81 79 80 78 75 77 77 72 72 71 70 71 72 73 73 72 72 73 70 71 68 68 70 68 70 68 68 71 74 71 68 72 76 77 79 80 79 79 78 78
67 66 64 64 67 69 72 73 74 75 75 76 76 76 76 78 78 78 79 79 78 78 78 79 79 80 79 79 77 77 72 71 72 72 71 71 73 74 72 72 72 72 70 71 69 70 69 67 69 70 71 74 74 75 76 75 80 79 79 80 81 79 79
68 67 66 67 70 70 74 73 74 74 75 74 75 75 75 76 77 76 77 77 78 78 78 78 79 79 79 78 78 77 77 76 73 71 70 71 72 72 73 74 73 73 72 75 72 70 73 71 70 71 73 77 72 73 75 76 75 80 81 80 81 81 81
68 68 66 69 73 75 76 74 74 74 74 74 74 74 75 77 77 78 77 78 78 78 78 77 78 79 78 79 78 77 76 76 75 71 69 71 71 72 72 72 72 73 73 74 74 74 73 71 68 71 71 74 74 74 76 77 78 76 78 82 82 82 81
69 69 68 70 73 76 76 75 75 76 76 76 76 77 77 76 77 78 78 77 77 77 78 77 78 78 77 78 78 77 76 76 73 73 70 69 70 72 71 72 71 70 75 75 74 74 75 74 74 74 72 69 71 73 73 77 77 77 76 80 82 81 80
69 70 70 73 77 77 76 76 76 77 78 78 78 78 77 78 77 77 78 77 78 77 77 78 77 78 77 76 77 76 76 78 75 74 73 72 71 72 70 72 71 72 74 75 75 75 76 74 77 76 74 73 70 68 72 71 74 75 80 77 80 81 79
69 68 68 71 75 76 77 77 77 78 78 78 77 77 76 77 77 77 77 77 76 77 77 77 77 77 77 77 76 75 76 77 76 76 74 72 73 72 72 71 72 74 75 76 76 75 76 76 78 77 77 75 75 71 69 68 71 71 76 80 75 77 80
71 70 68 70 76 75 75 77 77 77 77 78 77 77 77 76 76 77 77 77 77 77 77 78 78 78 76 76 77 77 77 76 75 73 75 75 73 75 73 72 72 72 73 75 77 77 75 75 75 77 78 80 79 74 72 69 69 74 74 78 79 77 79
73 69 67 71 76 76 76 77 76 77 77 77 77 76 76 76 75 75 76 77 77 78 78 78 78 77 77 76 77 76 76 74 76 75 75 74 72 74 74 73 73 73 72 75 76 77 77 75 76 79 79 81 78 78 74 75 69 73 78 74 78 81 79
74 71 70 75 76 77 78 77 77 76 76 77 76 76 76 76 76 76 77 78 78 78 78 78 78 78 77 77 77 77 76 77 76 76 77 77 78 75 73 72 75 73 72 75 75 76 77 78 78 78 78 77 78 79 77 76 72 70 77 77 78 80 81
74 73 76 78 77 77 78 78 78 77 77 75 77 77 78 78 79 78 79 78 79 77 77 76 77 76 77 76 77 77 78 77 77 77 77 76 78 77 77 77 75 74 74 76 76 76 76 78 78 77 79 79 79 78 78 76 73 71 75 78 78 80 80
74 76 77 77 76 77 78 78 77 77 77 78 79 80 80 79 79 79 79 79 79 80 78 78 77 77 77 76 75 76 77 77 77 77 76 76 76 78 76 75 76 75 76 77 75 77 79 79 79 80 81 79 79 78 79 79 75 72 70 75 76 81 79
68 74 75 77 76 77 77 77 79 77 77 78 79 80 79 79 79 80 79 78 80 80 79 80 78 77 77 76 77 76 76 76 76 76 75 76 77 77 76 75 75 75 75 74 74 76 78 79 80 82 80 81 79 78 80 82 76 73 71 73 76 77 77
66 73 76 76 76 76 78 77 78 78 79 79 80 79 79 80 79 79 79 79 80 79 79 78 78 78 78 77 76 76 77 76 77 77 76 77 78 76 76 73 74 75 75 74 75 76 78 79 78 82 80 80 79 78 79 78 79 75 74 72 74 79 79
68 74 75 76 76 77 77 77 77 79 78 78 79 78 78 80 79 79 78 79 80 79 79 79 78 77 77 77 77 77 76 77 76 77 77 77 76 77 75 74 75 76 75 74 74 76 79 77 81 81 79 81 80 79 79 78 79 79 75 73 73 77 79
70 74 76 75 76 76 77 77 78 78 80 78 79 79 78 80 80 81 80 81 81 80 81 80 80 79 78 78 77 77 77 78 77 78 78 80 80 79 76 75 73 76 76 73 73 75 77 77 80 79 79 80 81 79 76 77 78 77 78 78 75 72 77
67 73 75 75 76 77 77 77 77 78 78 79 78 78 80 80 80 81 81 80 81 79 80 80 80 79 79 79 78 77 77 77 77 77 78 80 80 79 79 79 77 75 74 72 71 75 76 76 77 78 78 78 81 78 76 76 78 77 75 76 77 76 75
72 73 75 75 76 75 75 76 77 78 79 78 78 79 79 79 79 81 80 80 81 81 79 80 80 80 80 79 77 77 77 77 77 77 77 79 80 80 80 79 79 78 78 77 74 74 76 75 77 77 78 79 78 77 74 75 75 76 75 74 74 75 77
73 74 76 75 75 74 74 75 78 78 78 78 78 80 79 79 79 80 80 79 80 80 77 68 64 64 71 78 79 76 76 77 77 76 77 78 78 78 79 79 79 77 69 61 55 58 60 63 76 75 76 78 77 76 76 76 75 75 75 74 74 75 75
70 72 73 74 75 75 74 75 76 77 77 78 78 79 79 78 79 78 77 78 78 75 68 63 49 42 47 64 74 78 76 76 76 76 76 76 76 77 78 78 72 58 58 58 56 52 52 52 53 62 71 75 76 75 75 74 74 75 73 73 73 73 72
68 70 72 72 73 74 75 74 74 75 76 76 76 77 77 77 77 77 77 77 74 68 64 56 41 39 42 41 64 74 77 75 77 77 76 75 75 75 76 78 76 68 67 64 66 49 49 50 48 47 46 48 55 67 73 73 73 74 73 73 74 73 73
67 67 69 70 70 70 69 71 72 73 73 73 74 76 75 76 76 76 74 72 69 66 60 44 39 41 40 39 44 65 75 76 76 76 77 76 76 76 76 76 77 75 76 75 76 71 62 51 50 50 48 45 45 44 49 65 70 71 72 72 72 72 73
63 64 64 65 66 67 67 67 67 67 67 70 72 73 74 74 73 72 71 70 67 65 61 41 40 39 40 39 36 51 77 77 76 76 76 77 77 78 77 76 76 76 78 65 72 76 76 69 48 39 43 46 47 47 48 47 49 63 70 69 71 71 73
59 59 59 61 62 63 63 61 61 64 66 67 67 67 67 68 69 69 67 66 64 62 58 44 40 39 41 39 40 46 75 77 75 77 76 76 76 75 75 76 75 75 76 74 76 76 76 76 73 69 70 73 75 66 49 45 44 42 50 66 70 69 72
56 55 55 56 57 58 57 57 57 58 59 61 63 63 62 62 64 64 64 63 62 59 53 39 40 39 40 40 38 47 74 74 75 75 75 75 75 75 75 74 74 74 75 73 59 58 73 74 75 74 73 74 74 74 75 75 72 73 72 71 72 73 73
55 55 53 53 53 53 53 54 53 54 56 57 58 59 61 64 63 64 63 62 60 59 55 39 39 40 40 40 41 66 73 73 73 74 74 74 75 75 75 75 75 74 74 62 49 40 45 64 71 72 71 73 74 74 75 69 65 68 72 74 75 75 75
52 53 52 52 52 52 52 52 52 54 54 55 55 55 56 60 63 64 63 61 59 58 55 43 39 40 41 39 50 69 72 73 73 72 72 72 74 75 73 73 72 74 67 59 41 39 39 48 69 70 71 71 72 73 73 76 58 53 54 51 48 44 41
52 52 52 52 52 51 52 52 53 54 53 53 54 55 56 56 57 61 61 61 61 58 54 45 39 40 41 40 48 67 73 74 72 72 71 72 73 71 61 51 63 68 62 53 39 39 38 52 67 69 69 69 69 69 72 73 70 64 53 52 51 48 45
53 52 51 51 52 52 52 53 56 56 55 54 54 55 56 55 56 57 57 57 56 58 56 49 40 40 40 41 49 64 70 73 72 71 72 72 73 71 62 50 45 49 50 44 37 39 38 48 61 65 66 66 66 67 68 67 66 64 63 65 66 66 62
52 52 52 52 52 52 54 55 55 55 56 56 54 53 54 54 54 53 54 56 56 57 55 50 44 40 40 42 40 57 68 68 67 68 70 71 71 73 63 55 47 38 38 37 38 38 39 38 51 58 60 63 64 64 60 60 63 64 64 63 64 64 64
52 53 54 54 54 54 54 54 55 55 54 55 54 53 54 54 53 53 55 56 56 55 54 54 46 39 40 40 39 46 65 61 61 63 65 66 69 69 71 62 56 39 37 37 38 37 38 37 39 51 57 61 60 50 49 60 60 53 63 63 63 63 64
55 53 53 54 56 56 56 57 57 57 57 56 55 55 55 56 56 56 56 57 57 57 54 50 54 41 39 40 39 40 55 55 52 57 60 62 63 65 65 64 59 44 38 39 38 37 37 38 37 47 54 45 40 40 50 53 57 61 63 64 65 63 64
56 57 56 56 55 56 58 58 58 58 58 58 57 56 56 57 57 56 57 59 59 59 57 54 46 49 38 39 37 39 38 48 40 53 57 58 58 58 60 61 55 42 39 39 39 39 38 37 39 49 42 39 39 37 41 55 57 57 60 62 62 63 64
55 56 57 58 57 56 56 58 58 59 60 60 60 60 60 60 61 60 59 58 58 59 59 56 47 44 44 38 39 36 38 36 37 52 54 56 57 56 57 51 47 39 40 40 40 39 38 38 43 40 38 37 37 39 50 55 56 57 57 59 59 61 61
MSLP
1016.06 1016.26 1016.34 1016.58 1016.58 1016.58 1016.70 1017.02 1016.82 1016.22 1016.10 1016.14 1016.34 1016.54 1016.70 1016.86 1017.14 1017.34 1017.54 1017.66 1017.82 1017.78 1017.90 1017.90 1017.98 1018.06 1018.06 1017.94 1018.18 1018.46 1018.54 1018.54 1019.14 1019.42 1019.98 1020.14 1020.42 1020.98 1020.78 1020.74 1020.70 1020.82 1020.98 1021.22 1021.54 1021.86 1022.50 1023.54 1023.34 1022.22 1022.10 1022.34 1022.22 1022.14 1022.06 1022.26 1022.46 1022.70 1022.78 1022.66 1022.62 1022.74 1022.74
1015.86 1016.14 1016.46 1016.70 1016.90 1016.94 1017.10 1017.66 1016.94 1016.18 1016.14 1016.14 1016.26 1016.50 1016.74 1017.02 1017.26 1017.50 1017.74 1017.74 1017.82 1017.66 1017.78 1017.78 1017.82 1017.86 1018.22 1018.86 1018.82 1019.22 1018.74 1018.70 1018.98 1019.70 1019.74 1020.10 1020.14 1021.02 1020.66 1020.74 1020.70 1021.02 1021.62 1021.14 1021.42 1021.86 1022.06 1023.18 1023.18 1022.98 1023.22 1022.66 1022.58 1022.62 1022.50 1022.42 1022.50 1022.50 1022.50 1022.50 1022.58 1022.78 1023.10
1016.06 1016.34 1016.50 1016.74 1016.94 1017.02 1017.62 1017.82 1016.58 1016.30 1016.22 1016.38 1016.46 1016.54 1016.78 1016.82 1017.10 1017.18 1017.30 1017.42 1017.54 1017.54 1017.62 1017.54 1017.74 1017.98 1018.02 1018.34 1018.54 1018.74 1019.02 1019.14 1019.30 1019.82 1020.18 1020.26 1020.14 1020.54 1020.14 1020.54 1021.06 1020.90 1021.14 1021.66 1021.82 1021.94 1022.06 1022.38 1022.46 1022.78 1022.82 1023.02 1023.34 1023.10 1022.70 1022.74 1022.62 1022.58 1022.58 1022.66 1022.58 1022.62 1022.90
1016.06 1016.26 1016.70 1016.82 1016.98 1017.62 1017.94 1016.90 1016.66 1016.42 1016.30 1016.46 1016.54 1016.70 1016.86 1016.94 1017.10 1017.22 1017.50 1017.62 1017.50 1017.58 1017.66 1017.54 1017.74 1017.90 1018.10 1018.38 1018.50 1018.66 1019.34 1019.38 1019.70 1019.74 1019.90 1020.06 1020.10 1020.18 1020.46 1020.58 1020.70 1021.10 1020.86 1021.70 1021.86 1021.74 1022.26 1021.82 1022.18 1022.42 1022.22 1021.98 1022.54 1023.34 1022.86 1022.38 1022.38 1022.34 1022.34 1022.50 1022.62 1022.86 1022.94
1015.98 1016.34 1016.58 1016.82 1017.02 1017.34 1016.78 1016.62 1016.46 1016.46 1016.50 1016.50 1016.62 1016.82 1017.02 1017.02 1017.26 1017.38 1017.42 1017.50 1017.62 1017.66 1017.82 1017.70 1017.78 1017.82 1018.06 1018.14 1018.50 1018.66 1019.34 1019.66 1019.70 1019.70 1019.98 1020.30 1020.10 1020.06 1020.42 1020.46 1020.70 1020.82 1021.14 1021.26 1021.50 1021.58 1021.74 1022.10 1021.70 1021.98 1022.10 1021.94 1022.06 1022.30 1022.46 1022.54 1022.06 1022.22 1022.34 1022.42 1022.54 1022.86 1023.02
1015.94 1016.14 1016.38 1016.54 1016.70 1016.66 1016.30 1016.42 1016.50 1016.62 1016.58 1016.74 1016.78 1016.94 1017.10 1017.22 1017.38 1017.58 1017.66 1017.70 1017.70 1017.74 1017.78 1017.86 1017.90 1017.94 1018.06 1018.30 1018.42 1018.66 1018.66 1019.06 1019.46 1019.86 1020.10 1020.22 1020.14 1020.22 1020.34 1020.34 1020.66 1020.98 1021.14 1020.70 1021.10 1021.62 1021.30 1021.54 1021.62 1021.82 1021.82 1021.26 1021.78 1022.34 1022.46 1022.50 1022.58 1022.18 1022.14 1022.38 1022.46 1022.66 1022.94
1015.98 1016.02 1016.14 1016.58 1016.22 1015.90 1015.90 1016.18 1016.34 1016.46 1016.62 1016.70 1016.78 1016.94 1017.06 1017.18 1017.30 1017.42 1017.54 1017.66 1017.70 1017.74 1017.82 1017.94 1018.02 1018.02 1018.14 1018.26 1018.38 1018.54 1018.74 1018.82 1019.14 1019.74 1019.98 1020.10 1020.14 1020.22 1020.38 1020.62 1020.74 1020.86 1020.78 1020.62 1020.82 1021.02 1021.22 1021.58 1022.06 1021.82 1021.74 1021.46 1021.62 1022.10 1022.14 1022.18 1022.14 1022.50 1022.58 1022.18 1022.26 1022.58 1022.94
1015.78 1015.82 1016.10 1016.38 1016.02 1015.66 1015.78 1016.06 1016.10 1016.14 1016.38 1016.42 1016.54 1016.58 1016.82 1017.14 1017.22 1017.38 1017.54 1017.70 1017.78 1017.82 1017.90 1018.02 1018.10 1018.14 1018.22 1018.30 1018.30 1018.38 1018.58 1018.66 1019.26 1019.58 1020.10 1020.06 1020.34 1020.34 1020.54 1020.66 1021.02 1021.26 1020.62 1020.62 1020.74 1020.90 1020.86 1021.06 1021.22 1021.14 1021.50 1022.18 1021.86 1021.82 1022.18 1021.86 1022.14 1022.22 1022.58 1022.34 1022.34 1022.70 1022.94
1015.46 1015.62 1015.90 1015.98 1015.46 1015.42 1015.62 1015.82 1015.90 1015.86 1016.02 1016.22 1016.30 1016.46 1016.78 1016.98 1017.26 1017.42 1017.54 1017.66 1017.74 1017.86 1017.94 1018.06 1018.10 1018.18 1018.22 1018.34 1018.46 1018.50 1018.54 1018.58 1018.94 1019.34 1019.66 1019.94 1020.14 1020.26 1020.62 1020.58 1020.94 1020.94 1020.58 1020.42 1020.62 1020.70 1020.70 1021.10 1020.58 1020.78 1021.22 1021.46 1021.98 1022.70 1022.10 1022.42 1022.18 1022.38 1022.06 1022.66 1022.58 1022.70 1023.18
1015.50 1015.70 1015.94 1016.02 1015.38 1015.30 1015.42 1015.62 1015.74 1015.70 1015.82 1016.06 1016.34 1016.58 1016.86 1016.98 1017.26 1017.42 1017.50 1017.62 1017.82 1017.86 1017.94 1018.02 1018.14 1018.18 1018.26 1018.38 1018.50 1018.66 1018.62 1018.54 1018.74 1018.98 1019.18 1019.66 1019.62 1020.14 1020.34 1020.38 1020.46 1020.34 1020.34 1020.18 1020.30 1020.58 1020.46 1020.54 1020.38 1020.70 1020.78 1020.86 1021.10 1021.98 1022.58 1022.82 1022.50 1022.78 1022.42 1022.26 1023.06 1023.14 1023.06
1015.06 1015.46 1015.90 1016.06 1015.34 1015.50 1015.58 1015.62 1015.74 1015.82 1015.98 1016.06 1016.38 1016.66 1016.86 1017.10 1017.30 1017.46 1017.54 1017.66 1017.74 1017.78 1017.86 1017.98 1018.10 1018.14 1018.34 1018.38 1018.30 1018.34 1018.54 1018.62 1018.78 1019.18 1019.10 1019.18 1019.54 1019.50 1019.86 1020.34 1020.58 1020.58 1020.30 1020.18 1019.98 1019.94 1020.30 1020.50 1020.74 1020.66 1020.50 1019.98 1020.14 1021.26 1021.82 1022.46 1022.78 1022.30 1022.46 1022.14 1022.26 1023.06 1023.02
1014.70 1015.30 1016.10 1016.14 1015.34 1015.54 1015.70 1015.66 1015.82 1015.86 1015.98 1016.22 1016.46 1016.70 1016.90 1017.18 1017.38 1017.54 1017.58 1017.66 1017.70 1017.78 1017.82 1018.02 1018.10 1018.22 1018.26 1018.38 1018.26 1018.42 1018.46 1018.86 1018.66 1018.86 1018.90 1019.18 1019.74 1019.62 1019.74 1020.02 1020.14 1020.34 1020.46 1020.22 1020.06 1019.98 1020.02 1020.58 1020.62 1020.42 1020.26 1019.90 1020.30 1020.02 1021.26 1021.38 1022.74 1022.26 1021.74 1022.58 1022.06 1022.22 1022.82
1014.50 1015.06 1015.54 1015.38 1015.42 1015.50 1015.58 1015.74 1015.86 1016.02 1016.14 1016.26 1016.50 1016.70 1016.94 1017.14 1017.34 1017.50 1017.54 1017.58 1017.70 1017.82 1017.94 1018.02 1018.06 1018.18 1018.26 1018.22 1018.30 1018.26 1018.26 1018.34 1018.62 1018.70 1018.74 1018.74 1018.90 1019.34 1019.78 1019.98 1019.82 1020.06 1020.26 1020.06 1020.14 1020.10 1020.14 1020.14 1020.22 1020.38 1020.34 1020.30 1020.38 1020.30 1020.74 1020.98 1021.98 1022.66 1021.90 1022.02 1021.94 1022.14 1022.42
1014.54 1015.02 1015.06 1015.02 1015.30 1015.38 1015.50 1015.62 1015.82 1015.94 1016.14 1016.34 1016.42 1016.66 1016.78 1016.94 1017.14 1017.34 1017.46 1017.62 1017.70 1017.90 1017.94 1018.10 1018.10 1018.14 1018.18 1018.34 1018.22 1018.22 1018.10 1018.34 1018.50 1018.58 1018.66 1018.78 1018.74 1018.98 1019.18 1019.38 1019.62 1019.90 1019.94 1019.86 1020.02 1020.14 1020.34 1020.26 1020.26 1020.30 1019.90 1020.10 1020.30 1020.62 1020.62 1020.90 1021.74 1022.38 1022.14 1021.66 1021.94 1022.02 1022.22
1014.46 1014.74 1014.82 1015.10 1015.14 1015.34 1015.50 1015.66 1015.82 1015.94 1016.14 1016.10 1016.22 1016.46 1016.62 1016.86 1017.02 1017.26 1017.34 1017.46 1017.54 1017.62 1017.78 1017.90 1017.98 1018.10 1018.22 1018.22 1018.30 1018.18 1018.22 1018.34 1018.50 1018.62 1018.70 1018.94 1019.02 1018.90 1019.10 1019.42 1019.42 1019.78 1019.74 1019.82 1020.18 1020.26 1020.06 1020.18 1020.38 1020.02 1019.86 1020.26 1020.54 1020.70 1020.30 1020.26 1021.22 1022.14 1022.78 1022.26 1022.22 1021.70 1022.18
1014.74 1014.86 1015.14 1015.06 1015.26 1015.34 1015.50 1015.66 1015.66 1015.90 1015.98 1016.10 1016.06 1016.26 1016.54 1016.82 1017.02 1017.14 1017.30 1017.46 1017.50 1017.58 1017.66 1017.66 1017.74 1017.98 1018.10 1018.22 1018.26 1018.26 1018.26 1018.38 1018.58 1018.70 1018.86 1018.90 1018.94 1018.94 1019.10 1019.30 1019.50 1019.62 1019.70 1019.98 1020.18 1019.98 1019.82 1020.10 1020.02 1019.58 1019.86 1020.06 1020.34 1020.54 1020.22 1019.98 1020.90 1021.74 1022.50 1022.50 1022.10 1022.06 1022.14
1015.10 1014.90 1014.90 1014.90 1015.18 1015.30 1015.34 1015.54 1015.54 1015.70 1015.82 1015.94 1016.06 1016.22 1016.42 1016.78 1016.98 1017.14 1017.30 1017.42 1017.42 1017.58 1017.62 1017.74 1017.90 1017.98 1018.02 1018.18 1018.34 1018.42 1018.38 1018.42 1018.50 1018.54 1018.74 1018.86 1018.82 1019.06 1019.10 1019.50 1019.46 1019.34 1019.54 1019.90 1019.94 1019.94 1019.74 1019.90 1019.82 1019.22 1019.90 1019.98 1020.14 1020.50 1020.22 1020.30 1020.14 1020.98 1021.58 1022.22 1022.10 1021.74 1021.82
1015.22 1014.62 1014.62 1014.62 1014.94 1015.06 1015.26 1015.50 1015.58 1015.62 1015.90 1016.02 1016.10 1016.34 1016.62 1016.70 1016.98 1017.10 1017.34 1017.38 1017.42 1017.54 1017.62 1017.78 1017.94 1018.02 1018.10 1018.14 1018.26 1018.34 1018.50 1018.62 1018.62 1018.62 1018.66 1018.66 1018.62 1018.82 1019.26 1019.34 1019.26 1019.30 1019.50 1019.82 1019.98 1019.86 1019.54 1019.86 1019.50 1019.34 1019.98 1019.98 1020.06 1020.38 1020.30 1020.54 1020.34 1020.58 1021.22 1021.66 1021.98 1021.46 1020.98
1015.22 1014.66 1014.62 1014.86 1014.94 1015.06 1015.22 1015.42 1015.58 1015.74 1015.90 1016.18 1016.26 1016.42 1016.66 1016.66 1016.86 1016.94 1017.18 1017.14 1017.22 1017.38 1017.46 1017.62 1017.70 1017.90 1018.02 1018.06 1018.14 1018.30 1018.34 1018.38 1018.46 1018.50 1018.50 1018.14 1018.26 1018.58 1019.02 1019.30 1019.54 1019.34 1019.46 1019.90 1020.06 1019.78 1019.54 1019.74 1019.54 1019.50 1019.90 1019.86 1019.90 1020.22 1020.66 1020.74 1020.66 1020.70 1020.66 1020.58 1021.10 1021.86 1021.02
1015.22 1014.66 1014.66 1014.90 1014.98 1015.10 1015.34 1015.54 1015.82 1016.14 1016.18 1016.14 1016.46 1016.58 1016.54 1016.70 1016.74 1016.78 1016.86 1017.06 1016.86 1017.22 1017.22 1017.46 1017.58 1017.74 1017.86 1017.98 1018.14 1018.30 1018.34 1018.38 1018.50 1018.62 1018.58 1018.30 1018.38 1018.58 1018.66 1018.86 1019.06 1019.54 1019.66 1020.18 1020.38 1019.90 1019.78 1019.82 1019.78 1019.58 1019.70 1019.78 1019.70 1019.94 1020.62 1020.90 1020.86 1021.02 1021.22 1021.14 1020.94 1020.98 1021.30
1014.34 1014.30 1014.42 1014.70 1014.86 1015.14 1015.54 1015.78 1015.98 1015.86 1015.94 1016.22 1016.46 1016.50 1016.62 1016.74 1016.78 1016.74 1016.82 1016.98 1016.82 1017.02 1017.38 1017.42 1017.58 1017.82 1017.82 1017.94 1018.22 1018.46 1018.58 1018.58 1018.54 1018.74 1018.58 1018.42 1018.38 1018.62 1018.66 1018.90 1019.06 1019.14 1019.26 1019.50 1020.02 1020.06 1019.82 1020.02 1019.90 1019.94 1019.78 1019.82 1019.82 1020.06 1020.70 1020.82 1021.02 1020.98 1021.26 1021.38 1021.42 1021.22 1021.06
1014.18 1014.22 1014.34 1014.66 1014.90 1015.34 1015.58 1015.94 1015.74 1015.94 1016.06 1016.30 1016.38 1016.38 1016.54 1016.70 1016.94 1016.94 1017.06 1017.14 1017.06 1017.18 1017.74 1018.54 1019.14 1019.22 1018.66 1017.98 1018.02 1018.50 1018.66 1018.74 1018.66 1018.82 1018.90 1018.74 1018.82 1018.98 1018.98 1018.98 1019.02 1019.34 1019.62 1019.82 1019.94 1020.14 1020.06 1020.10 1020.06 1020.26 1020.14 1020.06 1020.22 1020.38 1020.58 1020.78 1020.94 1021.14 1020.98 1021.10 1021.30 1021.18 1021.26
1014.54 1014.62 1014.66 1014.82 1014.98 1015.26 1015.62 1015.74 1015.86 1016.02 1016.18 1016.30 1016.38 1016.42 1016.66 1016.86 1017.02 1017.26 1017.42 1017.54 1017.62 1018.02 1018.82 1019.34 1020.10 1019.90 1019.50 1019.02 1018.54 1018.26 1018.70 1018.82 1018.82 1018.90 1019.02 1019.06 1019.18 1019.14 1019.06 1019.06 1019.54 1019.74 1019.86 1019.98 1020.10 1020.22 1020.26 1020.26 1020.50 1020.74 1020.70 1020.50 1020.42 1020.62 1020.78 1020.90 1020.98 1020.94 1021.10 1021.26 1021.18 1021.18 1021.42
1014.82 1015.14 1015.06 1015.22 1015.30 1015.46 1015.62 1015.90 1016.14 1016.26 1016.34 1016.46 1016.58 1016.78 1016.90 1017.14 1017.26 1017.38 1017.58 1017.78 1018.26 1018.90 1019.42 1020.18 1020.26 1019.78 1019.42 1019.34 1019.06 1018.62 1018.50 1018.82 1018.82 1018.78 1018.98 1019.22 1019.34 1019.34 1019.34 1019.22 1019.50 1019.90 1020.02 1020.18 1020.34 1020.50 1020.50 1020.50 1020.62 1020.78 1020.98 1021.14 1021.22 1021.18 1021.02 1021.10 1021.14 1020.98 1021.06 1021.06 1020.94 1021.02 1021.06
1015.06 1015.42 1015.50 1015.66 1015.74 1015.94 1016.22 1016.42 1016.58 1016.62 1016.70 1016.90 1016.94 1016.98 1017.22 1017.26 1017.38 1017.58 1017.94 1018.50 1018.98 1019.46 1020.06 1020.90 1020.42 1020.02 1019.82 1019.62 1019.54 1019.26 1018.74 1018.70 1018.90 1019.02 1018.94 1019.06 1019.06 1019.18 1019.26 1019.34 1019.30 1019.70 1019.74 1019.86 1019.94 1020.26 1020.46 1020.58 1020.66 1020.78 1020.94 1020.98 1020.94 1021.18 1021.62 1021.66 1021.54 1021.34 1021.30 1021.30 1021.26 1021.10 1021.02
1015.66 1015.78 1015.98 1016.06 1016.10 1016.30 1016.58 1016.94 1017.22 1017.42 1017.62 1017.50 1017.30 1017.38 1017.38 1017.50 1017.86 1018.22 1018.62 1018.98 1019.42 1019.82 1020.42 1021.26 1020.82 1020.50 1020.18 1019.94 1019.86 1019.62 1018.90 1018.54 1018.86 1018.94 1018.90 1018.86 1018.78 1018.74 1018.90 1019.22 1019.42 1019.46 1019.42 1019.90 1019.90 1019.82 1020.02 1020.42 1020.74 1020.98 1020.98 1021.06 1021.14 1021.10 1021.06 1021.42 1021.82 1021.86 1021.74 1021.66 1021.58 1021.34 1021.06
1016.38 1016.70 1016.66 1016.54 1016.58 1016.86 1017.14 1017.58 1017.82 1017.90 1017.90 1017.90 1018.06 1018.30 1018.38 1018.46 1018.58 1018.94 1019.30 1019.54 1019.90 1020.38 1020.98 1021.66 1021.34 1020.86 1020.46 1020.22 1019.98 1019.78 1019.10 1018.58 1018.90 1018.78 1018.94 1018.98 1019.02 1019.18 1019.14 1019.22 1019.30 1019.54 1019.58 1019.86 1019.78 1019.82 1019.82 1019.82 1020.30 1020.62 1020.74 1020.74 1020.70 1020.78 1021.02 1021.18 1021.22 1021.54 1021.94 1021.90 1021.74 1021.82 1021.34
1017.26 1017.54 1017.50 1017.38 1017.54 1017.78 1018.06 1018.22 1018.42 1018.62 1018.54 1018.62 1018.70 1018.82 1019.06 1019.34 1019.62 1019.74 1019.90 1020.06 1020.30 1020.86 1021.66 1022.02 1021.58 1021.18 1020.78 1020.46 1020.18 1019.78 1019.14 1019.02 1019.14 1019.06 1019.10 1019.10 1019.26 1019.22 1019.38 1019.58 1019.62 1019.62 1019.62 1019.98 1020.82 1020.62 1020.06 1020.10 1020.10 1020.18 1020.34 1020.46 1020.46 1020.54 1020.54 1020.66 1020.90 1021.02 1021.22 1021.26 1021.26 1021.26 1021.14
1017.78 1018.18 1018.34 1018.30 1018.34 1018.58 1018.90 1019.06 1019.18 1019.18 1019.22 1019.26 1019.30 1019.34 1019.38 1019.46 1019.86 1020.18 1020.30 1020.38 1020.58 1020.86 1021.58 1021.82 1021.54 1021.26 1020.90 1020.54 1020.26 1019.78 1019.18 1019.30 1019.22 1019.14 1019.26 1019.30 1019.30 1019.26 1019.34 1019.46 1019.54 1019.58 1019.86 1020.74 1021.30 1021.06 1020.90 1020.62 1020.58 1020.50 1020.54 1020.46 1020.42 1020.38 1020.38 1020.30 1020.38 1020.58 1020.78 1020.90 1020.86 1020.86 1020.78
1018.34 1018.58 1018.66 1018.78 1019.02 1019.22 1019.46 1019.66 1019.78 1019.78 1019.94 1020.02 1020.02 1020.18 1020.22 1019.90 1019.94 1020.22 1020.46 1020.66 1020.86 1021.14 1021.62 1021.98 1021.74 1021.46 1021.10 1020.86 1020.30 1019.62 1019.22 1019.18 1019.22 1019.42 1019.54 1019.50 1019.42 1019.34 1019.62 1019.78 1019.86 1019.74 1020.38 1021.46 1022.06 1021.70 1021.58 1021.22 1020.82 1020.78 1020.66 1020.58 1020.38 1020.30 1020.30 1020.06 1020.14 1020.46 1020.78 1021.06 1021.30 1021.42 1021.46
1018.86 1019.06 1019.10 1019.30 1019.62 1019.82 1019.86 1020.02 1020.30 1020.34 1020.42 1020.54 1020.54 1020.66 1020.86 1020.90 1020.62 1020.50 1020.62 1020.70 1020.82 1021.26 1021.74 1022.18 1021.98 1021.74 1021.42 1021.06 1020.62 1019.82 1019.26 1019.02 1019.46 1019.54 1019.66 1019.74 1019.54 1019.86 1020.58 1020.70 1020.58 1020.58 1021.10 1022.14 1022.34 1022.10 1021.98 1021.66 1021.10 1020.90 1020.74 1020.70 1020.70 1020.66 1020.22 1020.18 1020.74 1021.26 1021.14 1020.90 1020.86 1021.02 1021.14
1019.22 1019.58 1019.82 1019.90 1020.06 1020.18 1020.22 1020.30 1020.46 1020.62 1020.74 1020.78 1020.86 1020.94 1021.14 1021.30 1021.22 1021.22 1021.42 1021.42 1021.22 1021.18 1021.66 1022.14 1022.18 1022.10 1021.82 1021.54 1021.14 1020.42 1019.66 1019.26 1019.46 1019.62 1019.54 1019.54 1019.58 1019.90 1021.02 1021.78 1021.98 1022.14 1022.54 1022.98 1022.74 1022.74 1022.74 1022.54 1021.78 1021.30 1021.14 1020.98 1020.74 1020.66 1020.50 1020.78 1020.90 1021.18 1021.34 1021.18 1020.98 1020.86 1020.78
1019.98 1020.10 1020.38 1020.50 1020.46 1020.54 1020.58 1020.62 1020.70 1020.70 1020.78 1020.82 1021.06 1021.18 1021.26 1021.46 1021.62 1021.82 1021.94 1021.82 1021.78 1021.66 1021.90 1022.50 1022.62 1022.46 1022.30 1021.98 1021.74 1021.10 1020.18 1020.18 1020.18 1020.14 1020.06 1019.82 1019.86 1019.66 1020.70 1021.94 1022.70 1023.10 1023.02 1023.06 1023.06 1023.10 1023.22 1023.38 1022.94 1022.34 1021.94 1021.46 1021.10 1020.86 1021.58 1021.62 1021.30 1021.26 1021.22 1021.30 1021.22 1021.02 1020.82
1020.42 1020.46 1020.46 1020.54 1020.66 1020.78 1020.86 1020.94 1020.90 1020.86 1021.06 1021.18 1021.30 1021.50 1021.66 1021.82 1021.98 1022.10 1022.02 1021.94 1022.02 1022.18 1022.30 1022.38 1022.90 1022.90 1022.74 1022.58 1022.34 1021.94 1020.98 1021.34 1021.38 1021.14 1020.86 1020.66 1020.30 1020.14 1019.90 1021.22 1022.38 1023.34 1023.30 1023.38 1023.38 1023.38 1023.50 1023.66 1023.78 1023.26 1022.50 1021.90 1021.82 1022.50 1022.46 1021.66 1021.38 1021.42 1021.18 1020.98 1020.82 1020.70 1020.54
1020.66 1020.86 1020.86 1020.82 1020.82 1020.90 1020.98 1020.98 1020.98 1020.98 1021.06 1021.34 1021.54 1021.70 1021.70 1021.62 1021.78 1021.94 1022.02 1022.02 1022.02 1022.06 1022.46 1022.54 1022.70 1023.18 1023.10 1022.98 1022.86 1022.70 1022.14 1022.50 1022.86 1022.26 1021.66 1021.42 1021.14 1020.86 1020.86 1021.14 1022.10 1023.06 1023.18 1023.10 1023.14 1023.26 1023.30 1023.38 1023.58 1023.42 1022.58 1022.54 1022.62 1022.66 1022.66 1022.46 1021.90 1021.26 1020.82 1020.54 1020.38 1020.30 1020.30
1020.86 1020.82 1020.98 1021.14 1021.46 1021.22 1020.98 1021.02 1021.06 1021.02 1021.02 1021.06 1021.22 1021.46 1021.46 1021.46 1021.50 1021.66 1021.70 1021.58 1021.70 1021.86 1022.26 1022.70 1022.94 1023.10 1023.34 1023.30 1023.22 1023.14 1023.18 1023.10 1023.06 1022.70 1022.26 1022.10 1022.02 1021.98 1021.90 1021.78 1022.34 1022.86 1022.82 1022.82 1022.98 1023.06 1023.06 1023.22 1023.30 1022.86 1022.74 1022.74 1022.74 1022.82 1022.70 1022.06 1021.70 1021.50 1021.02 1020.62 1020.34 1020.06 1019.82
1021.38 1021.26 1021.18 1021.18 1021.34 1021.46 1021.30 1021.18 1021.14 1021.10 1020.94 1020.70 1020.70 1020.78 1020.82 1020.90 1020.82 1020.90 1021.18 1021.54 1021.70 1021.78 1021.98 1022.54 1023.10 1023.26 1023.54 1023.62 1023.58 1023.54 1023.50 1023.50 1023.46 1023.14 1022.94 1022.62 1022.46 1022.38 1022.30 1022.82 1022.98 1022.94 1022.82 1022.78 1022.90 1022.90 1023.02 1023.10 1023.06 1022.86 1022.74 1022.58 1022.58 1022.78 1022.42 1021.74 1021.46 1021.14 1020.94 1020.66 1020.34 1020.02 1019.78
Wind_Speed
7 8 8 5 3 3 2 5 6 6 7 7 7 7 6 6 6 6 7 6 7 7 7 6 6 6 6 5 7 5 6 6 5 5 6 5 4 5 5 5 5 5 4 5 5 4 7 6 6 5 5 5 5 6 6 7 7 6 6 6 7 6 5
5 6 5 4 2 3 3 7 9 7 7 6 6 7 9 9 8 7 9 8 8 7 7 6 5 7 7 6 6 6 6 5 5 4 2 5 7 3 7 4 4 6 7 4 5 1 5 7 7 8 7 5 5 4 5 5 6 5 4 5 6 7 6
5 5 4 4 3 4 5 11 7 6 6 6 6 6 6 7 8 8 8 8 7 6 7 7 7 7 7 6 8 6 1 2 1 7 0 4 4 2 3 5 4 2 7 6 6 7 3 8 6 8 7 8 7 6 4 5 6 6 6 5 5 6 6
9 7 5 5 3 5 11 9 6 6 6 6 5 5 5 6 6 7 6 6 6 5 6 6 6 7 7 7 6 7 6 5 3 5 2 1 0 2 1 1 4 5 2 5 5 4 4 4 8 7 7 7 7 7 6 6 6 7 6 4 5 5 5
10 6 8 7 8 12 11 8 7 6 6 6 5 5 5 5 5 5 6 6 6 6 6 5 5 5 6 6 7 7 7 6 5 4 4 3 3 3 2 2 1 3 1 1 8 4 3 1 1 7 6 7 8 7 6 5 6 6 6 6 6 6 6
9 9 6 7 11 10 8 8 8 7 6 6 6 5 5 5 5 5 5 5 5 5 5 5 4 6 6 6 7 7 7 8 6 4 3 4 4 3 2 2 1 4 2 3 6 4 4 2 2 6 6 7 6 7 7 7 6 6 6 6 7 6 7
8 7 7 7 10 9 8 8 8 7 7 6 6 6 6 6 5 4 4 4 4 4 5 5 5 6 6 6 7 8 8 7 7 10 6 5 4 3 2 1 0 2 2 3 4 5 5 5 6 7 6 6 7 7 7 7 7 7 6 6 7 7 7
8 7 7 9 9 9 7 8 7 7 6 6 7 6 8 6 5 5 5 5 4 5 5 5 5 6 5 6 5 6 7 6 5 5 7 6 4 5 2 3 2 3 3 4 3 3 4 5 5 7 7 7 7 7 7 7 7 7 7 7 7 7 7
7 7 5 9 8 8 9 8 7 7 7 7 7 7 8 7 5 5 5 5 4 4 5 6 6 5 6 6 6 6 6 5 6 8 7 8 7 5 6 5 4 7 5 5 7 6 6 6 6 7 6 6 6 7 6 7 7 8 8 8 7 8 8
9 7 5 9 8 7 8 8 8 7 8 7 7 8 7 7 6 5 5 5 5 5 5 5 5 5 5 5 5 7 7 6 6 7 7 8 7 9 8 8 6 3 5 6 7 8 6 5 4 5 7 7 6 6 6 7 5 8 8 8 7 8 9
10 9 6 9 8 7 8 7 8 7 8 8 8 8 7 7 6 6 5 5 5 5 6 5 6 5 5 5 6 5 5 4 5 5 6 4 3 6 6 8 6 5 3 6 4 5 6 4 3 7 8 5 5 7 5 7 7 6 7 7 7 8 9
9 8 5 12 9 9 9 8 9 8 8 8 8 8 7 6 5 4 4 5 5 6 5 5 6 6 6 5 5 5 6 7 6 6 5 6 6 5 6 6 6 4 4 6 5 5 6 7 7 7 7 5 5 3 7 6 7 6 6 6 7 9 9
11 11 11 12 10 10 10 10 9 9 9 8 8 8 7 7 7 6 5 5 5 5 6 6 6 6 6 5 5 6 6 6 7 6 6 7 6 8 9 9 7 6 6 7 6 5 4 6 6 7 5 6 6 1 6 6 7 8 5 5 6 8 10
12 11 14 12 11 10 9 9 9 9 9 8 8 8 8 8 7 7 7 6 6 6 7 6 5 5 6 6 6 6 6 7 7 5 6 6 6 6 7 7 8 8 8 6 5 6 7 7 6 7 7 4 5 4 6 5 8 8 5 4 5 7 9
7 9 10 12 9 10 10 9 9 9 9 9 9 8 8 7 7 7 7 7 6 6 7 7 7 6 6 6 6 5 6 6 6 6 4 6 5 5 6 8 8 6 7 7 7 8 8 7 8 9 6 6 7 7 7 9 10 8 8 5 5 6 9
1 9 13 11 10 11 10 10 9 9 8 8 9 8 8 7 7 7 6 5 5 5 6 6 5 6 6 6 6 6 5 5 5 6 6 6 7 5 6 7 8 8 7 7 7 8 7 8 8 8 7 6 8 8 9 6 11 10 9 7 6 7 8
7 10 13 11 12 11 11 10 9 9 8 8 9 8 8 8 6 6 6 6 5 4 5 3 4 5 6 5 5 6 5 5 5 5 5 5 6 7 6 6 7 8 7 7 8 8 8 8 8 7 7 6 7 8 6 6 8 8 9 9 7 8 8
14 14 14 12 13 13 11 10 8 9 8 8 9 8 8 8 7 7 6 6 5 5 4 4 4 4 3 3 4 5 4 4 5 5 5 8 7 7 6 5 5 8 7 9 7 9 8 9 9 6 7 7 6 7 3 3 2 6 9 9 8 8 9
11 13 13 12 13 12 11 10 9 7 8 9 8 8 9 7 7 8 7 6 5 5 5 4 5 5 4 4 4 4 6 5 5 6 7 6 5 6 6 8 7 3 7 5 6 8 7 9 7 7 9 8 7 7 6 5 5 4 5 6 9 8 6
5 10 11 11 10 10 9 10 8 9 8 9 8 8 8 8 7 7 7 6 6 5 5 5 3 3 5 5 3 5 4 4 5 5 5 6 7 5 6 5 7 9 8 7 7 8 7 7 6 6 7 7 9 10 8 7 7 6 6 5 5 8 8
7 8 10 11 11 9 10 8 11 9 9 8 8 8 8 7 6 6 6 6 5 5 4 4 2 3 4 5 5 4 3 4 4 5 6 6 4 4 4 5 4 5 7 8 8 8 7 7 6 6 5 5 7 5 8 7 6 7 8 7 7 5 5
7 8 10 12 11 11 9 11 9 9 8 8 6 7 7 6 6 5 5 3 1 2 4 9 7 7 8 1 6 4 5 4 4 5 4 3 4 5 4 4 3 4 9 8 11 7 6 6 3 7 6 5 6 5 5 6 7 7 7 7 8 7 7
7 7 9 9 10 10 10 8 8 8 8 7 7 6 6 6 5 5 6 5 5 5 7 5 7 9 6 6 5 5 5 5 5 5 6 6 6 5 5 4 6 8 9 9 9 9 8 8 9 6 4 4 6 7 6 6 7 7 7 8 8 8 8
8 8 8 8 9 9 9 8 6 7 7 7 7 7 6 6 6 6 6 6 6 7 5 5 11 10 11 11 7 7 5 3 4 6 6 6 6 5 5 5 5 6 5 3 2 4 4 5 7 8 7 5 4 3 5 6 8 8 7 8 7 8 8
9 8 8 9 10 10 10 9 6 5 6 6 6 6 6 7 6 6 6 8 7 6 5 8 9 9 9 8 6 6 3 4 3 3 4 5 5 5 6 6 5 4 5 4 3 6 4 2 3 4 5 8 9 5 4 1 5 6 7 8 8 8 8
9 9 8 8 8 9 10 10 9 9 8 5 4 4 5 6 7 7 6 7 7 6 6 9 8 7 6 6 6 5 5 5 3 4 3 4 5 6 6 5 5 4 4 6 3 4 5 6 5 2 1 4 4 6 11 5 5 4 5 7 7 9 9
10 8 7 8 9 9 10 9 8 7 7 8 9 8 8 7 7 6 6 7 7 7 7 10 11 8 6 6 5 5 6 3 2 3 3 3 2 2 2 2 4 5 3 4 4 5 4 4 5 5 4 4 5 6 7 8 10 7 4 4 6 7 7
10 9 8 8 9 9 8 7 8 5 5 6 6 7 7 7 6 6 7 7 7 7 5 10 11 11 10 9 8 7 3 0 3 3 2 1 1 1 2 3 3 2 4 2 8 8 2 3 4 4 5 6 6 7 7 7 6 5 4 5 6 8 8
11 10 9 8 10 9 8 7 7 6 7 6 7 6 6 7 7 6 6 7 7 7 6 12 12 12 12 12 11 5 3 3 4 3 4 2 4 4 4 3 3 5 3 8 9 12 9 6 4 6 6 7 7 8 8 7 4 1 4 6 7 7 6
10 10 9 9 8 8 8 8 7 5 6 6 6 6 4 5 6 6 6 6 6 6 6 10 12 13 13 14 9 5 4 4 4 3 2 2 3 1 3 4 4 2 8 7 9 12 13 10 4 6 8 9 8 8 8 6 8 8 2 7 12 14 12
10 8 9 9 8 7 7 6 6 5 5 5 6 6 5 5 6 5 5 5 5 6 6 9 12 13 14 15 12 7 3 3 2 2 3 3 3 4 8 13 10 7 8 7 10 12 13 9 5 6 8 8 9 10 9 5 5 5 3 5 7 8 9
10 9 8 8 7 6 6 5 6 6 5 6 6 6 5 5 6 6 6 5 5 6 6 8 12 12 14 14 11 7 6 2 2 1 2 2 2 5 7 10 14 12 9 7 11 11 12 10 4 6 7 8 8 9 6 5 4 3 6 8 7 6 7
9 9 8 7 7 6 5 5 5 5 5 5 5 4 4 4 5 5 4 4 6 6 6 6 8 11 12 13 14 9 5 6 5 4 2 4 2 1 9 8 10 12 11 11 10 10 10 9 6 6 7 6 7 6 8 8 7 6 5 7 8 9 9
9 8 7 7 6 6 6 5 5 5 5 4 4 4 4 4 4 3 2 3 4 5 5 5 7 10 11 12 14 12 5 7 7 6 6 5 4 4 1 9 6 7 7 7 7 7 5 5 5 5 5 6 6 7 9 8 9 8 8 7 8 7 9
7 6 7 6 5 5 5 4 4 4 3 4 4 3 2 3 3 3 3 3 3 4 6 8 5 7 8 10 11 13 7 7 7 6 6 4 6 4 6 5 5 6 8 9 8 7 6 5 5 4 5 7 10 10 7 6 7 8 8 9 9 9 9
7 6 6 6 4 4 4 4 3 3 3 4 4 4 4 4 4 4 3 2 3 4 5 6 6 6 6 7 7 8 8 6 9 6 4 4 5 4 5 7 6 12 11 11 10 11 10 9 7 6 9 9 9 8 6 5 6 6 8 9 10 10 11
7 6 6 5 5 4 3 3 3 2 1 2 3 3 3 2 3 3 3 3 2 3 4 6 5 7 5 3 3 2 3 2 4 3 3 2 4 4 4 4 6 10 10 11 11 10 10 9 8 11 12 12 11 8 5 6 6 6 8 9 9 10 11
Wind_Direction
170 162 165 170 105 64 41 316 217 185 183 179 176 163 189 157 173 167 186 189 190 185 193 194 187 193 194 206 177 188 206 181 187 206 160 182 166 158 170 187 195 157 184 116 154 147 145 138 142 132 104 84 78 62 79 99 103 105 123 141 135 126 116
153 134 129 138 132 128 137 232 226 181 174 172 174 172 176 170 172 180 188 191 191 190 196 188 192 195 181 189 168 214 198 179 185 38 228 181 156 211 178 178 231 152 193 151 157 208 176 144 154 151 143 126 113 103 85 98 110 116 109 90 88 97 105
126 127 150 156 156 180 177 222 201 179 161 161 167 172 181 177 179 181 187 185 193 194 199 192 186 184 197 177 176 188 105 200 243 119 342 22 85 261 199 162 225 133 173 135 178 182 175 214 165 157 158 156 146 131 131 130 134 126 123 132 147 121 112
157 159 152 125 155 200 211 194 187 168 163 156 157 163 179 178 181 181 179 195 192 193 199 206 185 185 192 188 182 174 178 188 205 97 84 145 356 169 80 281 194 223 130 187 151 184 189 177 149 162 163 163 137 136 161 154 148 152 137 121 108 112 117
156 163 160 162 190 209 194 181 175 168 162 155 159 158 171 179 177 184 185 187 188 191 195 207 190 190 190 194 190 193 177 202 148 169 148 176 199 189 238 224 342 329 114 110 98 206 136 185 229 152 165 148 157 147 138 165 169 140 145 148 126 119 120
157 163 168 181 204 198 180 177 171 172 163 160 163 159 155 170 179 177 186 193 185 191 194 197 196 206 186 197 196 194 198 191 150 160 170 185 173 207 215 222 99 229 165 153 129 176 177 134 259 163 164 177 139 131 144 165 158 150 139 138 136 132 117
156 168 162 215 211 191 175 170 173 170 163 163 156 159 158 169 185 172 179 187 189 191 192 189 202 202 199 202 196 196 198 191 180 151 194 195 192 209 246 298 73 288 101 123 161 166 159 175 196 177 167 153 141 150 147 166 153 147 148 145 138 124 131
164 170 181 215 207 180 168 168 177 172 169 167 164 157 159 171 169 174 171 176 184 183 189 186 188 201 200 212 201 202 196 181 180 142 166 191 177 198 205 230 134 260 217 148 193 178 191 190 206 159 177 161 163 150 161 149 156 150 143 133 136 134 122
182 165 187 220 192 179 171 172 179 171 164 164 163 157 159 169 168 172 177 173 180 180 189 193 194 196 198 199 190 200 202 180 189 176 167 174 181 192 202 211 211 204 204 186 194 185 183 206 202 148 176 180 162 156 164 145 171 133 152 138 140 130 129
177 157 182 229 178 183 165 173 172 169 155 160 157 158 157 163 162 177 183 165 180 184 195 196 200 205 197 206 196 189 196 188 194 199 178 198 176 180 199 183 228 206 212 211 193 169 180 196 165 163 190 192 168 157 167 155 155 133 159 150 147 141 145
165 153 165 228 172 169 169 166 169 162 157 155 150 156 158 157 164 176 183 179 189 198 198 191 199 195 192 202 204 193 187 188 181 193 203 173 186 181 199 192 187 209 257 229 195 161 151 170 196 178 212 186 188 156 174 165 141 159 148 162 152 147 158
143 115 161 224 173 172 173 165 162 158 154 152 155 152 153 152 156 181 190 193 195 204 203 194 195 192 196 200 205 197 186 191 197 197 191 168 188 201 193 196 191 193 223 218 190 190 159 170 189 182 222 162 236 160 165 178 150 160 153 179 149 149 159
144 160 192 199 174 170 173 165 159 154 152 151 152 151 158 163 173 177 191 192 190 197 198 201 196 195 199 200 206 203 195 199 200 204 188 189 187 180 194 195 188 175 204 190 195 185 176 183 174 188 185 239 155 240 181 178 158 138 161 171 145 151 159
161 182 193 175 175 165 165 159 156 156 155 160 159 165 169 168 174 174 188 189 190 194 198 196 201 204 204 203 201 212 194 203 206 200 198 193 184 190 201 194 187 174 207 187 171 185 182 186 175 202 196 205 141 190 200 164 162 141 150 160 162 166 157
175 184 168 174 161 161 158 163 159 161 168 160 163 169 165 166 174 185 186 194 194 195 201 194 196 200 207 204 200 203 201 204 212 199 202 207 196 208 185 199 193 176 209 170 185 194 185 178 182 203 174 188 163 191 211 192 142 147 153 173 182 179 154
135 186 172 171 165 163 166 164 166 162 163 154 166 165 162 161 180 182 178 195 195 197 208 201 191 197 203 203 205 189 196 199 201 198 204 200 203 207 193 198 181 180 196 174 192 197 180 181 193 205 166 189 160 190 210 241 144 154 162 175 190 191 166
197 199 170 170 172 166 167 167 162 162 160 160 160 167 148 172 172 174 179 191 187 187 199 184 192 205 201 210 210 197 197 192 196 200 203 205 197 202 199 201 201 180 186 188 180 202 174 193 211 196 162 190 153 195 188 300 167 156 174 168 195 205 167
200 184 173 170 172 164 166 162 164 162 157 163 159 157 160 170 177 173 181 193 173 188 176 183 184 192 171 205 211 202 200 198 195 198 190 203 186 184 192 199 211 175 196 189 173 207 179 192 217 166 185 178 178 170 193 211 220 167 174 179 174 230 190
209 173 168 169 166 162 163 158 160 158 164 164 157 167 167 173 182 172 182 189 175 182 186 179 178 176 167 181 185 179 205 187 191 193 204 213 176 168 182 167 212 190 192 201 185 204 187 193 213 187 183 191 183 163 185 198 223 241 250 207 174 184 267
224 164 164 165 160 160 156 150 165 166 185 157 168 170 170 172 185 174 181 181 192 171 189 186 179 192 176 175 157 173 190 184 185 182 202 191 182 169 184 172 167 181 195 175 204 209 198 202 212 225 179 207 202 162 185 184 211 215 227 258 244 191 187
137 135 156 158 160 150 152 173 175 175 165 161 169 172 169 170 173 187 167 196 179 179 170 204 180 178 216 167 185 168 197 195 176 173 211 192 194 184 197 165 177 188 190 188 185 213 214 204 209 227 198 206 244 168 173 190 220 215 203 221 235 246 218
116 131 154 163 161 160 163 177 180 166 165 159 173 167 164 159 172 171 146 190 121 113 80 48 32 12 354 258 168 184 197 212 200 176 187 194 167 197 204 191 199 68 56 48 50 43 33 14 232 215 223 229 228 232 202 203 211 224 232 219 216 230 237
100 112 125 145 158 158 167 171 169 160 161 158 165 153 154 155 160 150 163 149 157 88 52 51 9 350 6 5 338 196 176 216 204 214 209 206 191 220 207 204 89 72 52 47 41 34 24 6 16 27 340 275 238 227 230 237 228 224 229 229 229 223 222
122 125 116 122 126 142 157 157 152 154 154 153 148 145 149 150 149 151 144 145 98 68 56 24 355 7 3 7 355 333 168 194 208 222 205 221 224 219 223 228 134 105 124 96 76 52 351 357 10 16 10 28 34 13 276 232 234 246 239 238 233 232 234
125 121 115 112 107 97 85 86 104 123 127 132 136 145 153 153 145 121 98 87 77 70 64 19 356 9 6 359 1 342 297 202 191 225 220 217 213 219 213 213 202 152 192 171 173 157 159 185 316 356 9 360 350 350 125 146 297 273 259 257 253 252 248
101 95 91 88 88 86 89 90 85 80 70 61 80 125 137 121 105 102 98 94 84 75 68 11 356 6 8 353 353 327 260 203 219 212 239 232 237 219 197 184 202 189 147 114 220 202 182 170 177 169 295 312 279 273 295 274 183 221 308 308 283 267 265
73 63 67 79 81 82 83 77 66 62 72 75 74 69 64 75 85 87 84 88 79 66 45 3 350 357 4 349 344 325 276 220 222 233 193 231 249 300 312 237 198 194 171 179 219 232 248 227 161 186 208 233 250 222 214 250 265 253 206 252 287 288 292
75 68 61 65 68 68 66 67 65 47 40 50 64 69 67 61 70 81 80 80 83 65 45 5 4 360 2 349 342 294 270 81 211 221 214 191 282 236 201 221 258 258 215 91 31 4 330 296 271 261 248 242 244 254 248 239 225 241 248 248 264 277 281
71 65 56 54 67 68 57 47 55 56 64 60 49 53 86 111 109 108 102 95 91 81 52 21 10 9 6 2 338 288 219 207 230 205 183 187 208 194 204 218 225 239 65 64 15 26 28 2 331 292 275 261 261 255 253 241 245 205 252 263 258 264 273
68 67 64 63 62 67 74 66 56 49 67 66 71 51 26 69 101 107 103 95 92 84 57 21 14 13 9 5 350 288 203 218 195 207 207 196 238 204 51 31 5 318 73 58 22 25 17 1 303 275 266 271 267 267 264 256 190 192 215 321 343 348 340
62 62 67 72 72 75 72 69 65 50 66 75 74 74 66 44 56 73 84 94 96 93 69 35 22 16 12 7 354 340 293 234 182 228 189 211 253 96 58 43 31 52 62 48 27 34 19 4 290 280 274 275 276 272 272 298 33 39 43 238 253 272 283
59 52 47 52 52 59 59 70 87 90 82 71 75 75 69 67 66 65 55 46 31 79 79 51 32 20 12 14 6 344 333 317 200 219 310 169 200 122 93 59 51 55 58 45 38 33 25 7 328 302 315 295 282 274 294 358 331 358 336 312 299 290 271
59 58 55 51 48 50 54 60 70 80 76 79 74 82 102 78 72 63 49 43 40 46 68 61 33 28 17 11 10 354 358 2 13 8 340 332 333 176 116 100 68 53 52 43 41 33 25 17 355 335 324 307 296 318 9 334 334 326 303 268 263 265 266
56 53 55 56 54 57 54 52 52 66 70 66 72 69 71 85 91 110 94 78 69 54 34 62 62 34 27 20 16 5 10 26 8 359 348 354 333 336 337 93 88 68 60 50 43 27 29 14 354 322 304 297 333 348 328 320 321 320 300 288 275 264 263
70 64 52 43 49 69 75 74 73 86 105 110 118 114 140 150 142 134 133 116 108 101 64 32 72 60 40 35 32 27 26 42 15 340 340 329 330 339 349 55 64 42 34 23 11 9 352 344 329 291 287 297 314 325 326 306 298 292 285 277 266 257 249
51 61 76 78 64 61 75 84 83 100 132 147 152 163 171 173 168 155 146 124 110 102 110 92 58 76 58 46 38 51 40 36 354 342 342 337 328 332 340 349 34 14 360 1 356 343 335 327 301 274 281 291 294 311 298 278 283 285 276 274 273 272 268
45 44 50 64 70 50 52 76 88 86 120 164 147 147 139 158 169 151 138 121 112 113 128 109 98 99 111 113 96 77 55 43 358 8 336 281 300 310 315 30 348 343 349 335 319 316 316 305 277 278 282 282 283 285 281 278 270 270 273 268 266 265 263